User: anonymous
Location: Ostrava
(49.8330°N, 18.2830°E)
Time: 21:17:49
(UTC+02:00)
Language:

Cosmos 1400 Rocket - Orbit

View from above orbital plane
View from above orbital plane
View from above satellite
View from above satellite

Ground track
Ground track

The orbit data is extracted from the following two-line orbital elements,

1 13403U 82079B   14113.19323099  .00002389  00000-0  17187-3 0  5482
2 13403 081.1699 145.2564 0037995 104.5333 256.0108 15.03281713723551
Epoch (UTC): 23 April 2014 04:38:15
Eccentricity: 0.0037995
inclination: 81.1699°
perigee height: 530 km
apogee height: 583 km
right ascension of ascending node: 145.2564°
argument of perigee: 104.5333°
revolutions per day: 15.03281713
mean anomaly at epoch: 256.0108°
orbit number at epoch: 72355

The dashed part of the orbit path shows where the satellite is in the earth's shadow,  

DLR